Regional Weather Roundup
Issued by NWS

Home | Current Version | Previous Version | Text Only | Print | Product List | Glossary Off
Versions: 1 2 3 4 5 6 7 8 9 10 11 12 13 14 15 16 17 18 19 20 21 22 23 24 25 26 27 28 29 30 31 32 33 34 35 36 37 38 39 40 41 42 43 44 45 46 47 48 49 50

000
ASUS43 KLMK 020010
RWRKY
KENTUCKY REGIONAL WEATHER ROUNDUP
NATIONAL WEATHER SERVICE LOUISVILLE KY
800 PM EDT FRI AUG 01 2014

NOTE "FAIR" INDICATES FEW OR NO CLOUDS BELOW 12,000 FEET
WITH NO SIGNIFICANT WEATHER AND/OR OBSTRUCTIONS TO VISIBILITY.

KYZ001>023-026-027-061>063-070>075-020100-
WESTERN AND SOUTH CENTRAL KENTUCKY

CITY           SKY/WX    TMP DP  RH WIND       PRES   REMARKS
PADUCAH        MOSUNNY   82  68  62 CALM      30.02S
HENDERSON      MOSUNNY  N/A N/A N/A MISG        N/A
OWENSBORO      CLEAR     83  58  42 NE6       30.03S
HOPKINSVILLE   CLEAR     84  56  37 N3        30.02R
BOWLING GREEN  CLEAR     83  54  36 E5        30.03R
GLASGOW        CLEAR     82  56  40 CALM      30.03R
$$

KYZ024-025-028>034-038-045-046-053-020100-
NORTH CENTRAL KENTUCKY

CITY           SKY/WX    TMP DP  RH WIND       PRES   REMARKS
LOUISVILLE/SDF PTCLDY    83  54  36 SW6       30.03R
LOUISVILLE/LOU PTCLDY    83  54  36 CALM      30.04R
FORT KNOX      CLEAR     78  66  66 N3        30.03S
$$

KYZ035>037-039>044-047>052-055>060-089>105-020100-
NORTHEAST KENTUCKY

CITY           SKY/WX    TMP DP  RH WIND       PRES   REMARKS
LEXINGTON      PTCLDY    80  60  50 NE7       30.06R
COVINGTON      PTCLDY    79  58  48 E3        30.06R
FRANKFORT      CLEAR     82  57  42 N5        30.04S
$$

KYZ054-064>069-076>088-106>120-020100-
SOUTHEAST KENTUCKY

CITY           SKY/WX    TMP DP  RH WIND       PRES   REMARKS
JACKSON        PTCLDY    75  62  64 CALM      30.07R
LONDON         LGT RAIN  76  65  68 N3        30.06R
SOMERSET       CLEAR     79  63  57 CALM      30.06R
MIDDLESBORO    PTCLDY    76  67  74 CALM      30.06R
MONTICELLO     CLEAR     80  69  69 CALM      30.07R
$$




USA.gov is the U.S. government's official web portal to all federal, state and local government web resources and services.